| time (UTC) | temp F | wind direction | speed MPH | gust MPH | rain 1hr in | rain 24hr in | rain mn in | humidity % | barometer mb |
| 20260509034553 | 72 | 114 | 0.0 | 0.0 | 0.00 | 0.03 | 0.03 | 80 | 1007.8 |
| 20260509033104 | 72 | 114 | 0.0 | 0.0 | 0.00 | 0.03 | 0.03 | 80 | 1007.3 |
| 20260509031619 | 72 | 114 | 0.0 | 2.0 | 0.00 | 0.03 | 0.03 | 80 | 1007.2 |
| 20260509030049 | 72 | 114 | 0.0 | 0.0 | 0.00 | 0.03 | 0.03 | 80 | 1007.1 |
| 20260509024557 | 72 | 113 | 0.0 | 0.0 | 0.00 | 0.03 | 0.03 | 80 | 1006.7 |
| 20260509023048 | 72 | 113 | 0.0 | 0.0 | 0.00 | 0.03 | 0.03 | 79 | 1006.5 |
| 20260509021547 | 72 | 113 | 0.0 | 0.0 | 0.00 | 0.03 | 0.03 | 79 | 1006.2 |
| 20260509020048 | 73 | 113 | 0.0 | 0.0 | 0.00 | 0.03 | 0.03 | 78 | 1006.3 |
| 20260509014547 | 73 | 112 | 0.0 | 0.0 | 0.00 | 0.03 | 0.03 | 78 | 1006.4 |
| 20260509013049 | 73 | 109 | 0.0 | 0.0 | 0.00 | 0.03 | 0.03 | 77 | 1006.3 |
| 20260509011548 | 73 | 98 | 0.0 | 0.0 | 0.00 | 0.03 | 0.03 | 77 | 1006.0 |
| 20260509010044 | 73 | 98 | 0.0 | 1.0 | 0.00 | 0.03 | 0.03 | 77 | 1005.7 |
| 20260509004555 | 73 | 98 | 0.0 | 1.0 | 0.00 | 0.03 | 0.03 | 76 | 1005.6 |
| 20260509003046 | 73 | 113 | 0.0 | 2.0 | 0.00 | 0.03 | 0.03 | 75 | 1005.5 |
| 20260509001544 | 74 | 138 | 0.0 | 2.0 | 0.00 | 0.03 | 0.03 | 74 | 1005.7 |
| 20260509000045 | 74 | 138 | 0.0 | 2.0 | 0.00 | 0.03 | 0.03 | 73 | 1005.9 |
| 20260508234539 | 74 | 139 | 0.0 | 1.0 | 0.00 | 0.03 | 0.03 | 72 | 1005.9 |
| 20260508233039 | 75 | 151 | 0.0 | 1.0 | 0.00 | 0.03 | 0.03 | 71 | 1006.0 |
| 20260508231544 | 75 | 109 | 0.0 | 3.0 | 0.00 | 0.03 | 0.03 | 69 | 1006.2 |
| 20260508230037 | 75 | 146 | 0.0 | 4.0 | 0.00 | 0.03 | 0.03 | 69 | 1006.0 |
| 20260508224558 | 75 | 126 | 0.0 | 4.0 | 0.00 | 0.03 | 0.03 | 69 | 1006.2 |
| 20260508223036 | 75 | 124 | 0.0 | 3.0 | 0.00 | 0.03 | 0.03 | 69 | 1006.0 |
| 20260508221544 | 75 | 157 | 0.0 | 6.0 | 0.00 | 0.03 | 0.03 | 68 | 1006.1 |
| 20260508220035 | 75 | 139 | 0.0 | 5.0 | 0.00 | 0.03 | 0.03 | 68 | 1006.1 |
| 20260508214539 | 77 | 250 | 0.0 | 3.0 | 0.00 | 0.03 | 0.03 | 66 | 1006.2 |
| 20260508213036 | 75 | 119 | 0.0 | 4.0 | 0.00 | 0.03 | 0.03 | 69 | 1006.1 |
| 20260508211530 | 74 | 96 | 0.0 | 3.0 | 0.00 | 0.03 | 0.03 | 70 | 1006.2 |
| 20260508210027 | 73 | 128 | 0.0 | 2.0 | 0.00 | 0.03 | 0.03 | 70 | 1007.0 |
| 20260508204524 | 73 | 163 | 0.0 | 2.0 | 0.00 | 0.03 | 0.03 | 70 | 1007.8 |
| 20260508203022 | 74 | 249 | 0.0 | 2.0 | 0.00 | 0.03 | 0.03 | 69 | 1008.1 |
| 20260508201522 | 74 | 135 | 0.0 | 4.0 | 0.00 | 0.03 | 0.03 | 69 | 1008.2 |
| 20260508200035 | 74 | 131 | 0.0 | 4.0 | 0.00 | 0.03 | 0.03 | 68 | 1008.1 |
| 20260508194519 | 76 | 103 | 0.0 | 4.0 | 0.00 | 0.03 | 0.03 | 67 | 1008.0 |
| 20260508193020 | 76 | 144 | 0.0 | 3.0 | 0.00 | 0.03 | 0.03 | 65 | 1008.3 |
| 20260508191516 | 76 | 250 | 0.0 | 8.0 | 0.00 | 0.03 | 0.03 | 66 | 1008.3 |
| 20260508190019 | 75 | 123 | 0.0 | 7.0 | 0.00 | 0.03 | 0.03 | 66 | 1008.6 |
| 20260508184523 | 76 | 130 | 1.0 | 9.0 | 0.00 | 0.03 | 0.03 | 64 | 1008.6 |
| 20260508183014 | 77 | 114 | 1.0 | 8.0 | 0.00 | 0.03 | 0.03 | 62 | 1008.6 |
| 20260508181508 | 76 | 130 | 0.0 | 6.0 | 0.00 | 0.03 | 0.03 | 65 | 1009.0 |
| 20260508180006 | 76 | 151 | 2.0 | 8.0 | 0.00 | 0.03 | 0.03 | 63 | 1009.3 |
| 20260508174502 | 76 | 135 | 0.0 | 6.0 | 0.00 | 0.03 | 0.03 | 63 | 1009.6 |
| 20260508173109 | 76 | 124 | 0.0 | 6.0 | 0.00 | 0.03 | 0.03 | 63 | 1009.7 |
| 20260508171558 | 74 | 141 | 0.0 | 3.0 | 0.00 | 0.03 | 0.03 | 65 | 1009.8 |
| 20260508170052 | 73 | 204 | 0.0 | 6.0 | 0.00 | 0.03 | 0.03 | 67 | 1010.4 |
| 20260508164550 | 72 | 171 | 0.0 | 3.0 | 0.00 | 0.03 | 0.03 | 66 | 1010.9 |
| 20260508163050 | 72 | 146 | 0.0 | 6.0 | 0.00 | 0.03 | 0.03 | 65 | 1011.2 |
| 20260508161548 | 73 | 142 | 3.0 | 9.0 | 0.00 | 0.03 | 0.03 | 64 | 1011.2 |
| 20260508160042 | 71 | 136 | 0.0 | 9.0 | 0.00 | 0.03 | 0.03 | 67 | 1011.4 |
| 20260508154539 | 70 | 124 | 0.0 | 7.0 | 0.00 | 0.03 | 0.03 | 69 | 1011.6 |
| 20260508153035 | 68 | 118 | 1.0 | 5.0 | 0.00 | 0.03 | 0.03 | 70 | 1011.8 |
| 20260508151535 | 67 | 113 | 0.0 | 2.0 | 0.00 | 0.03 | 0.03 | 70 | 1012.1 |
| 20260508150038 | 67 | 174 | 0.0 | 3.0 | 0.00 | 0.03 | 0.03 | 71 | 1012.2 |
| 20260508144540 | 67 | 105 | 1.0 | 3.0 | 0.00 | 0.03 | 0.03 | 72 | 1011.8 |
| 20260508143036 | 67 | 116 | 0.0 | 2.0 | 0.00 | 0.03 | 0.03 | 73 | 1012.2 |
| 20260508141528 | 66 | 122 | 0.0 | 4.0 | 0.00 | 0.03 | 0.03 | 73 | 1012.2 |
| 20260508140034 | 66 | 148 | 0.0 | 5.0 | 0.00 | 0.03 | 0.03 | 75 | 1012.2 |
| 20260508134520 | 64 | 99 | 0.0 | 3.0 | 0.00 | 0.03 | 0.03 | 80 | 1012.3 |
| 20260508133018 | 63 | 144 | 0.0 | 4.0 | 0.00 | 0.03 | 0.03 | 83 | 1012.0 |
| 20260508131515 | 62 | 160 | 0.0 | 2.0 | 0.00 | 0.03 | 0.03 | 85 | 1012.0 |
| 20260508130019 | 62 | 160 | 0.0 | 0.0 | 0.00 | 0.03 | 0.03 | 87 | 1012.4 |
| 20260508124513 | 61 | 160 | 0.0 | 0.0 | 0.00 | 0.03 | 0.03 | 88 | 1012.4 |
| 20260508123013 | 61 | 160 | 0.0 | 0.0 | 0.00 | 0.03 | 0.03 | 88 | 1012.5 |
| 20260508121518 | 61 | 160 | 0.0 | 0.0 | 0.00 | 0.03 | 0.03 | 88 | 1012.1 |
| 20260508120018 | 61 | 160 | 0.0 | 0.0 | 0.00 | 0.03 | 0.03 | 88 | 1012.3 |
| 20260508114526 | 60 | 160 | 0.0 | 0.0 | 0.00 | 0.03 | 0.03 | 88 | 1012.4 |
| 20260508113011 | 60 | 160 | 0.0 | 0.0 | 0.00 | 0.03 | 0.03 | 89 | 1012.4 |
| 20260508111512 | 60 | 160 | 0.0 | 0.0 | 0.00 | 0.03 | 0.03 | 90 | 1012.3 |
| 20260508110009 | 60 | 160 | 0.0 | 0.0 | 0.00 | 0.03 | 0.03 | 90 | 1012.9 |
| 20260508104508 | 60 | 160 | 0.0 | 0.0 | 0.00 | 0.03 | 0.03 | 90 | 1012.2 |
| 20260508103008 | 60 | 160 | 0.0 | 0.0 | 0.00 | 0.03 | 0.03 | 90 | 1011.9 |
| 20260508101508 | 60 | 160 | 0.0 | 0.0 | 0.00 | 0.03 | 0.03 | 90 | 1011.6 |
| 20260508100008 | 60 | 160 | 0.0 | 0.0 | 0.00 | 0.03 | 0.03 | 90 | 1011.4 |
| 20260508094505 | 60 | 160 | 0.0 | 0.0 | 0.00 | 0.03 | 0.03 | 90 | 1011.6 |
| 20260508093012 | 60 | 160 | 0.0 | 0.0 | 0.00 | 0.03 | 0.03 | 89 | 1011.8 |
| 20260508091502 | 61 | 160 | 0.0 | 0.0 | 0.00 | 0.03 | 0.03 | 89 | 1011.9 |
| 20260508084558 | 61 | 160 | 0.0 | 0.0 | 0.03 | 0.03 | 0.03 | 88 | 1011.9 |
| 20260508083055 | 61 | 161 | 0.0 | 2.0 | 0.03 | 0.03 | 0.03 | 88 | 1011.9 |
| 20260508081601 | 62 | 169 | 0.0 | 0.0 | 0.03 | 0.03 | 0.03 | 87 | 1012.7 |
| 20260508080059 | 62 | 169 | 0.0 | 0.0 | 0.03 | 0.03 | 0.03 | 84 | 1013.0 |
| 20260508074553 | 62 | 169 | 0.0 | 0.0 | 0.00 | 0.00 | 0.00 | 82 | 1013.3 |
| 20260508073102 | 62 | 169 | 0.0 | 0.0 | 0.00 | 0.00 | 0.00 | 80 | 1012.8 |
| 20260508071548 | 62 | 169 | 0.0 | 0.0 | 0.00 | 0.00 | 0.00 | 81 | 1012.7 |
| 20260508070048 | 62 | 169 | 0.0 | 0.0 | 0.00 | 0.00 | 0.00 | 81 | 1012.9 |
| 20260508064601 | 62 | 169 | 0.0 | 0.0 | 0.00 | 0.00 | 0.00 | 81 | 1013.0 |
| 20260508063044 | 62 | 169 | 0.0 | 0.0 | 0.00 | 0.00 | 0.00 | 81 | 1013.2 |
| 20260508061552 | 62 | 169 | 0.0 | 0.0 | 0.00 | 0.00 | 0.00 | 81 | 1013.4 |
| 20260508060047 | 62 | 169 | 0.0 | 0.0 | 0.00 | 0.00 | 0.00 | 80 | 1013.4 |
| 20260508054604 | 62 | 169 | 0.0 | 0.0 | 0.00 | 0.00 | 0.00 | 79 | 1013.3 |
| 20260508053038 | 62 | 169 | 0.0 | 0.0 | 0.00 | 0.00 | 0.00 | 79 | 1013.4 |
| 20260508051537 | 62 | 169 | 0.0 | 0.0 | 0.00 | 0.00 | 0.00 | 78 | 1013.4 |
| 20260508050037 | 62 | 169 | 0.0 | 0.0 | 0.00 | 0.00 | 0.00 | 78 | 1013.4 |
| 20260508044534 | 63 | 169 | 0.0 | 0.0 | 0.00 | 0.00 | 0.00 | 77 | 1013.6 |
| 20260508043042 | 63 | 169 | 0.0 | 0.0 | 0.00 | 0.00 | 0.00 | 76 | 1013.4 |
| 20260508041535 | 63 | 169 | 0.0 | 0.0 | 0.00 | 0.00 | 0.00 | 76 | 1013.5 |
| 20260508040037 | 63 | 169 | 0.0 | 0.0 | 0.00 | 0.00 | 0.00 | 75 | 1013.4 |